Regional Weather Roundup
Issued by NWS

Home | Current Version | Previous Version | Text Only | Print | Product List | Glossary Off
Versions: 1 2 3 4 5 6 7 8 9 10 11 12 13 14 15 16 17 18 19 20 21 22 23 24 25 26 27 28 29 30 31 32 33 34 35 36 37 38 39 40 41 42 43 44 45 46 47 48 49 50

000
ASUS43 KLMK 192110
RWRKY
KENTUCKY REGIONAL WEATHER ROUNDUP
NATIONAL WEATHER SERVICE LOUISVILLE KY
400 PM EST MON FEB 19 2018

NOTE "FAIR" INDICATES FEW OR NO CLOUDS BELOW 12,000 FEET
WITH NO SIGNIFICANT WEATHER AND/OR OBSTRUCTIONS TO VISIBILITY.

KYZ001>023-026-027-061>063-070>075-192200-
WESTERN AND SOUTH CENTRAL KENTUCKY

CITY           SKY/WX    TMP DP  RH WIND       PRES   REMARKS
PADUCAH        FAIR      73  55  53 S10G35    29.98F
HENDERSON      FAIR      74  58  57 S21G32    29.99S
OWENSBORO      FAIR      74  56  53 S24G31    30.00F
HOPKINSVILLE   FAIR      75  53  45 S26G38    30.05S
BOWLING GREEN  PTSUNNY   74  57  55 S21G30    30.10S
GLASGOW        PTSUNNY   74  53  48 SW16G29   30.11S
$$

KYZ024-025-028>034-038-045-046-053-192200-
NORTH CENTRAL KENTUCKY

CITY           SKY/WX    TMP DP  RH WIND       PRES   REMARKS
LOUISVILLE/SDF CLOUDY    77  54  44 S22G41    30.03F
LOUISVILLE/LOU PTSUNNY   77  56  48 S25G38    30.03F
FORT KNOX      FAIR      74  55  51 S24G33    30.06S
$$

KYZ035>037-039>044-047>052-055>060-089>105-192200-
NORTHEAST KENTUCKY

CITY           SKY/WX    TMP DP  RH WIND       PRES   REMARKS
LEXINGTON      PTSUNNY   72  56  57 S21G28    30.11R
COVINGTON      CLOUDY    73  58  59 SW16G24   30.03R
FRANKFORT      PTSUNNY   74  54  49 S22G36    30.07R
$$

KYZ054-064>069-076>088-106>120-192200-
SOUTHEAST KENTUCKY

CITY           SKY/WX    TMP DP  RH WIND       PRES   REMARKS
JACKSON        PTSUNNY   73  54  51 S9        30.17S
LONDON         FAIR      70  54  56 S17G28    30.18F
SOMERSET       PTSUNNY   72  52  49 MISG      30.17R
MIDDLESBORO    PTSUNNY   68  56  65 S3        30.23F
MONTICELLO     NOT AVBL
$$





USA.gov is the U.S. government's official web portal to all federal, state and local government web resources and services.